Regional Weather Roundup
Issued by NWS Albany, NY

Home | Current Version | Previous Version | Text Only | Print | Product List | Glossary On
Versions: 1 2 3 4 5 6 7 8 9 10 11 12 13 14 15 16 17 18 19 20 21 22 23 24 25 26 27 28 29 30 31 32 33 34 35 36 37 38 39 40 41 42 43 44 45 46 47 48 49 50
903
ASUS41 KALY 220010
RWRALY

NEW YORK STATE HOURLY WEATHER ROUNDUP
NATIONAL WEATHER SERVICE ALBANY NY
800 PM EDT SAT APR 21 2018

NOTE: "FAIR" INDICATES FEW OR NO CLOUDS BELOW 12,000 FEET WITH NO
SIGNIFICANT WEATHER AND/OR NO OBSTRUCTIONS TO VISIBILITY.

NYZ032-033-038>043-046>054-057>066-NYZ062>081-082-084-220100-
EAST


CITY           SKY/WX    TMP DP  RH WIND       PRES   REMARKS
ALBANY         FAIR      51  17  26 W12G21    30.30R
GLENS FALLS    FAIR      48  17  29 N9        30.30R
POUGHKEEPSIE   FAIR      53  18  25 NW7       30.28R
MONTGOMERY     FAIR      53  19  26 N7        30.28R
WHITE PLAINS   FAIR      52  22  30 NW6       30.28R
ISLIP          MOCLDY    47  34  60 SW12      30.29R
NEW YORK CITY  MOCLDY    59  20  22 N15       30.28R
CENTRAL PARK   FAIR      59  17  19 VRB7      30.31R
$$

NYZ005>009-017-018-044>046-055-056-220100-
CENTRAL


CITY           SKY/WX    TMP DP  RH WIND       PRES   REMARKS
FULTON         FAIR      45  21  38 W6        30.37R
SYRACUSE       FAIR      47  20  34 NW7       30.36R
ROME           FAIR      45  19  35 NW8       30.36R
ELMIRA         FAIR      50  23  34 N3        30.34S
BINGHAMTON     FAIR      44  17  33 N8        30.33R
MONTICELLO     FAIR      47  20  34 W7        30.31R
$$

NYZ026>034-041>043-087-220100-
NORTH


CITY           SKY/WX    TMP DP  RH WIND       PRES   REMARKS
WATERTOWN      FAIR      42  25  50 SW8       30.35S
FORT DRUM      NOT AVBL
OGDENSBURG     FAIR      48  17  29 NW3       30.34R
MASSENA        FAIR      48  17  29 W6        30.33R
SARANAC LAKE   FAIR      41  15  35 VRB3      30.27R
PLATTSBURGH    FAIR      49  14  24 NW10      30.29R
$$

NYZ001>004-010>016-019>021-085-220100-
WEST


CITY           SKY/WX    TMP DP  RH WIND       PRES   REMARKS
NIAGARA FALLS  FAIR      47  26  44 SW8       30.38S
BUFFALO        MOCLDY    45  21  38 SW7       30.39S
DUNKIRK        FAIR      47  24  40 W3        30.41R
JAMESTOWN      FAIR      45  19  35 N6        30.39R
WELLSVILLE     FAIR      45  22  40 NW8       30.37R
ROCHESTER      FAIR      51  19  28 NW9       30.37S
PENN YAN       FAIR      48  16  27 N7        30.37R
$$

             KEY
       WCI = WIND CHILL INDEX
       VSB = VISIBILITY
       HX  = HEAT INDEX
$$




USA.gov is the U.S. government's official web portal to all federal, state and local government web resources and services.